[[{"header":{"parameterUnit":"m.s-1","parameterCategory":1,"la1":30.2991,"la2":30.254,"lo1":-89.0895,"lo2":-89.0444,"dy":0.0017,"dx":0.0017,"nx":28,"ny":28,"refTime":"2026-03-03T03:00:00:Z","depth":0,"parameterNumber":2,"parameterNumberName":"U-component_of_WINDS"},"data":[0,0,0,0,0,0,0,0,0,0,0,0,0,0,0,0,0,0,0,0,0,0,0,0,0,0,0,0,0,0,0,0,0,0,0,0,0,0,0,0,0,0,0,0,0,0,0,0,0,0,0,0,0,0,0,0,0,0,-3.0148,-3.0148,0,-3.0199,-3.02,-3.0201,-3.0185,-3.0184,-3.0183,-3.0182,-3.0233,-3.0236,-3.0238,0,0,0,0,0,0,0,0,0,0,0,0,0,-3.0036,-3.0038,-3.0148,-3.0149,-3.0149,-3.0199,-3.02,-3.0201,-3.0185,-3.0184,-3.0182,-3.0181,-3.0233,-3.0235,-3.0238,0,0,0,0,0,0,0,0,0,0,0,0,0,-3.0085,-3.0039,-3.0148,-3.0147,-3.0148,-3.0199,-3.02,-3.0201,-3.0185,-3.0184,-3.0182,-3.0181,-3.0232,-3.0235,-3.0239,-3.0293,0,0,-3.0249,-3.0251,0,0,0,0,0,0,0,0,-3.0083,-3.009,-3.0147,-3.0148,-3.0148,-3.0184,-3.0179,-3.0232,-3.0186,-3.0171,-3.0182,-3.018,-3.0218,-3.0223,-3.0236,-3.0295,-3.0297,-3.025,-3.0252,-3.0253,-3.0254,0,0,0,0,0,0,0,-3.0079,-3.0087,-3.0168,-3.0148,-3.0149,-3.0145,-3.015,-3.0189,-3.0203,-3.0172,-3.0171,-3.0178,-3.0218,-3.0232,-3.0237,-3.0298,-3.025,-3.0253,-3.0255,-3.0256,-3.0405,-3.0407,0,0,0,0,0,0,-3.0075,-3.0085,-3.0167,-3.017,-3.0111,-3.0148,-3.0154,-3.0174,-3.0203,-3.0205,-3.0179,-3.0177,-3.0227,-3.0233,-3.0239,-3.0304,-3.0253,-3.0257,-3.0259,-3.0403,-3.0405,-3.0407,0,0,0,0,0,0,-3.0073,-3.0083,-3.0164,-3.0127,-3.0137,-3.0152,-3.0175,-3.0176,-3.019,-3.0208,-3.021,-3.0191,-3.0226,-3.0234,-3.028,-3.0305,-3.0258,-3.0262,-3.0401,-3.0404,-3.0406,-3.0434,0,0,0,0,0,0,-3.007,-3.0082,-3.0103,-3.0128,-3.0139,-3.0205,-3.0176,-3.0178,-3.0197,-3.0194,-3.022,-3.0222,-3.0225,-3.0274,-3.0283,-3.0309,-3.0264,-3.0399,-3.0402,-3.0406,-3.0431,-3.0437,-3.0443,0,0,0,0,0,-3.0066,-3.0108,-3.0104,-3.0114,-3.0165,-3.0206,-3.0213,-3.0216,-3.0199,-3.0219,-3.0231,-3.0221,-3.0302,-3.0279,-3.0289,-3.0316,-3.0397,-3.0401,-3.0405,-3.0428,-3.0436,-3.0443,0,0,0,0,0,0,-3.0085,-3.0111,-3.0107,-3.0159,-3.018,-3.0203,-3.0229,-3.0224,-3.0251,-3.0247,-3.025,-3.0256,-3.0303,-3.0315,-3.0289,-3.0371,-3.0347,-3.0353,-3.0361,-3.0369,-3.0375,-3.037,-3.0267,0,0,0,0,0,-3.0096,-3.0127,-3.0148,-3.0192,-3.0203,-3.0215,-3.0232,-3.0233,-3.0256,-3.0265,-3.0279,-3.0301,-3.0331,-3.0351,-3.038,-3.0434,-3.0438,-3.0457,-3.0463,-3.0468,-3.0473,-3.0502,-3.051,-3.0421,-3.0421,-3.0421,0,0,-3.0117,-3.0135,-3.0155,-3.0196,-3.0213,-3.0245,-3.0222,-3.0257,-3.028,-3.027,-3.0314,-3.0326,-3.035,-3.04,-3.0423,-3.0412,-3.0499,-3.0474,-3.0477,-3.0479,-3.0507,-3.0515,-3.0523,-3.0423,-3.0423,-3.0423,0,0,-3.0172,-3.019,-3.0228,-3.0245,-3.0272,-3.028,-3.0289,-3.0313,-3.0321,-3.0365,-3.0358,-3.0387,-3.0438,-3.0456,-3.0472,-3.0536,-3.0528,-3.0546,-3.0576,-3.0605,-3.0612,-3.0618,-3.064,-3.0647,-3.0551,-3.0551,-3.0551,0,-3.0195,-3.0243,-3.0248,-3.0283,-3.0301,-3.0295,-3.0333,-3.035,-3.0384,-3.0397,-3.0384,-3.0449,-3.0466,-3.0519,-3.0535,-3.0549,-3.0559,-3.0541,-3.061,-3.0617,-3.0623,-3.0643,-3.0652,-3.0553,-3.0552,-3.0552,-3.0552,0,-3.027,-3.0303,-3.0331,-3.0365,-3.0386,-3.0423,-3.0433,-3.0455,-3.0454,-3.0464,-3.0509,-3.0529,-3.0561,-3.0575,-3.0575,-3.0629,-3.0621,-3.061,-3.0585,-3.0633,-3.0652,-3.066,-3.0555,-3.0555,-3.0554,-3.0554,0,0,-3.0336,-3.0373,-3.0383,-3.0398,-3.0428,-3.0453,-3.0491,-3.0523,-3.0541,-3.0566,-3.0596,-3.0641,-3.0631,-3.0649,-3.0651,-3.0676,-3.0725,-3.0662,-3.0662,-3.0671,-3.0785,-3.0792,-3.0801,-3.0721,-3.0722,-3.0724,-3.0783,0,-3.0392,-3.0457,-3.0463,-3.0521,-3.0551,-3.0547,-3.0579,-3.06,-3.0611,-3.0638,-3.065,-3.0681,-3.0666,-3.0676,-3.0701,-3.0714,-3.0747,-3.071,-3.0748,-3.075,-3.074,-3.0812,-3.0819,-3.0874,-3.079,-3.0792,-3.0793,0,-3.0466,-3.0493,-3.0554,-3.058,-3.0593,-3.0622,-3.0652,-3.0679,-3.0704,-3.071,-3.0731,-3.073,-3.0768,-3.0744,-3.0796,-3.0771,-3.0787,-3.0796,-3.0798,-3.08,-3.0772,-3.0814,-3.0891,-3.0899,-3.0805,-3.0804,-3.0803,0,-3.0506,-3.0558,-3.0601,-3.0615,-3.0646,-3.0667,-3.0681,-3.0704,-3.0723,-3.0751,-3.0763,-3.0794,-3.0811,-3.0835,-3.0843,-3.0825,-3.0894,-3.0871,-3.0899,-3.0899,-3.0912,-3.0911,-3.0991,-3.0926,-3.0926,-3.0926,-3.0926,0,-3.0567,-3.0604,-3.062,-3.0646,-3.0688,-3.0695,-3.0736,-3.0749,-3.0771,-3.0799,-3.0798,-3.0825,-3.0834,-3.0863,-3.087,-3.0911,-3.0919,-3.0925,-3.0925,-3.0923,-3.0923,-3.0933,-3.0928,-3.0928,-3.0928,-3.0927,-3.0927,0,-3.0618,-3.063,-3.0677,-3.0703,-3.0711,-3.074,-3.0763,-3.0789,-3.0799,-3.0836,-3.0845,-3.0862,-3.0895,-3.0906,-3.0947,-3.0952,-3.1,-3.0999,-3.0991,-3.0991,-3.1018,-3.1015,-3.1106,-3.1118,-3.1047,-3.1048,-3.1048,0,-3.0654,-3.0683,-3.0713,-3.0733,-3.0748,-3.0779,-3.0799,-3.0808,-3.0829,-3.086,-3.0882,-3.0916,-3.0943,-3.0997,-3.1013,-3.1044,-3.1042,-3.1073,-3.1047,-3.1044,-3.1041,-3.1038,-3.1041,-3.1076,-3.1077,-3.1078,-3.1078,0,-3.0718,-3.0724,-3.0753,-3.0784,-3.0808,-3.0834,-3.0858,-3.0874,-3.0887,-3.091,-3.0945,-3.0967,-3.1009,-3.1042,-3.1075,-3.1089,-3.1086,-3.1087,-3.1095,-3.1092,-3.1086,-3.1088,-3.1002,-3.1084,-3.1083,-3.1083,-3.1083,-3.1082,-3.0762,-3.0787,-3.0813,-3.0845,-3.0865,-3.0888,-3.0913,-3.0928,-3.0957,-3.0992,-3.0996,-3.1034,-3.1059,-3.1102,-3.1118,-3.1148,-3.1139,-3.1151,-3.1154,-3.1156,-3.1157,-3.1083,-3.1154,-3.1154,-3.1154,-3.1154,-3.1154,0,-3.0825,-3.0841,-3.0871,-3.0906,-3.0932,-3.0928,-3.0955,-3.0977,-3.101,-3.1034,-3.1061,-3.1101,-3.1134,-3.1153,-3.1186,-3.1206,-3.1205,-3.1214,-3.1212,-3.1215,-3.1164,-3.1153,-3.1214,-3.1214,-3.1214,-3.1214,-3.1214,-3.1214,-3.086,-3.0902,-3.0911,-3.0963,-3.0979,-3.1016,-3.1032,-3.1053,-3.1072,-3.1117,-3.1145,-3.1158,-3.118,-3.1214,-3.1244,-3.1249,-3.126,-3.127,-3.1274,-3.1225,-3.1219,-3.1213,-3.1202,-3.1273,-3.1273,-3.1322,-3.1323,-3.1323]},{"header":{"parameterUnit":"m.s-1","parameterCategory":1,"la1":30.2991,"la2":30.254,"lo1":-89.0895,"lo2":-89.0444,"dy":0.0017,"dx":0.0017,"nx":28,"ny":28,"refTime":"2026-03-03T03:00:00:Z","depth":0,"parameterNumber":3,"parameterNumberName":"V-component_of_WINDS"},"data":[0,0,0,0,0,0,0,0,0,0,0,0,0,0,0,0,0,0,0,0,0,0,0,0,0,0,0,0,0,0,0,0,0,0,0,0,0,0,0,0,0,0,0,0,0,0,0,0,0,0,0,0,0,0,0,0,0,0,2.3069,2.307,0,2.3121,2.3121,2.3122,2.313,2.3129,2.3129,2.3128,2.3176,2.3178,2.318,0,0,0,0,0,0,0,0,0,0,0,0,0,2.2975,2.2976,2.3069,2.307,2.307,2.3121,2.3121,2.3122,2.313,2.3129,2.3129,2.3128,2.3176,2.3178,2.318,0,0,0,0,0,0,0,0,0,0,0,0,0,2.302,2.2977,2.3069,2.308,2.3082,2.312,2.3121,2.3122,2.313,2.3129,2.3129,2.3128,2.3175,2.3178,2.318,2.3209,0,0,2.3188,2.3189,0,0,0,0,0,0,0,0,2.3017,2.3023,2.3078,2.308,2.3081,2.3118,2.3106,2.3151,2.313,2.3111,2.3128,2.3128,2.3157,2.3161,2.3172,2.3211,2.3214,2.3188,2.319,2.3191,2.3191,0,0,0,0,0,0,0,2.3014,2.3021,2.3089,2.3079,2.3081,2.3082,2.3088,2.3114,2.3137,2.3113,2.3114,2.312,2.3158,2.317,2.3173,2.3214,2.3188,2.319,2.3192,2.3193,2.3283,2.3284,0,0,0,0,0,0,2.3009,2.3018,2.3088,2.3091,2.3047,2.3084,2.3091,2.3107,2.3137,2.3141,2.3121,2.312,2.3166,2.317,2.3175,2.3213,2.3191,2.3193,2.3195,2.3283,2.3284,2.3285,0,0,0,0,0,0,2.3007,2.3016,2.3086,2.3055,2.3064,2.3087,2.3105,2.3108,2.312,2.3143,2.3147,2.3129,2.3165,2.3171,2.3202,2.3215,2.3194,2.3197,2.3282,2.3283,2.3284,2.3289,0,0,0,0,0,0,2.3005,2.3015,2.3026,2.3055,2.3066,2.3112,2.3106,2.311,2.3125,2.3125,2.3151,2.3155,2.3165,2.3198,2.3204,2.3218,2.3198,2.328,2.3282,2.3284,2.3288,2.329,2.3293,0,0,0,0,0,2.3001,2.3024,2.3027,2.3035,2.3081,2.3113,2.3119,2.3131,2.3126,2.3138,2.3153,2.3154,2.3213,2.3201,2.3208,2.3223,2.328,2.3282,2.3284,2.3287,2.329,2.3292,0,0,0,0,0,0,2.2993,2.3027,2.3031,2.3064,2.3086,2.3114,2.3129,2.3134,2.3156,2.3155,2.3169,2.3174,2.3205,2.3217,2.3203,2.3255,2.3246,2.3249,2.3246,2.3249,2.3251,2.3247,2.3201,0,0,0,0,0,2.2995,2.302,2.3048,2.3074,2.3085,2.3106,2.312,2.3128,2.3151,2.3159,2.3176,2.3197,2.322,2.3235,2.3257,2.329,2.3296,2.3304,2.3306,2.3308,2.3311,2.3331,2.3336,2.3291,2.3291,2.3291,0,0,2.2999,2.3021,2.3035,2.3073,2.3091,2.3116,2.3113,2.3138,2.3157,2.3162,2.3193,2.3207,2.3231,2.3263,2.3278,2.3274,2.3325,2.3311,2.3312,2.3314,2.3334,2.3338,2.3342,2.3292,2.3292,2.3292,0,0,2.302,2.3039,2.3064,2.3083,2.3112,2.3126,2.3132,2.3161,2.3171,2.3202,2.3208,2.323,2.3269,2.3287,2.3301,2.3333,2.3335,2.334,2.3352,2.3372,2.3376,2.3379,2.3392,2.3396,2.3343,2.3343,2.3343,0,2.3021,2.306,2.3076,2.3103,2.312,2.3129,2.3156,2.3172,2.3206,2.3217,2.3213,2.3265,2.3281,2.3319,2.3328,2.3338,2.3346,2.3337,2.3374,2.3377,2.3381,2.3393,2.3398,2.3343,2.3343,2.3343,2.3343,0,2.3061,2.3088,2.3105,2.314,2.3159,2.3185,2.3205,2.3222,2.323,2.3245,2.3278,2.3299,2.3327,2.3337,2.3343,2.3377,2.3374,2.3371,2.3363,2.3385,2.3397,2.3402,2.3344,2.3344,2.3343,2.3343,0,0,2.3074,2.3122,2.3128,2.3146,2.318,2.3201,2.3228,2.3258,2.3274,2.3297,2.332,2.3356,2.3355,2.3371,2.338,2.3398,2.3424,2.3394,2.3395,2.34,2.3465,2.3467,2.3472,2.3426,2.3427,2.3428,2.3463,0,2.31,2.3151,2.3168,2.321,2.3236,2.3248,2.3272,2.3295,2.331,2.3334,2.335,2.3376,2.3372,2.3383,2.34,2.3417,2.3438,2.3415,2.3448,2.3449,2.3443,2.3478,2.3479,2.3511,2.3468,2.3469,2.3469,0,2.3136,2.3164,2.3209,2.3244,2.3255,2.3277,2.3308,2.333,2.3358,2.3368,2.3388,2.3397,2.3426,2.3416,2.3457,2.3441,2.3456,2.3467,2.3468,2.3472,2.3461,2.3484,2.3522,2.3527,2.3476,2.3476,2.3475,0,2.3144,2.3192,2.3227,2.3241,2.3282,2.3297,2.3314,2.3341,2.3359,2.3386,2.3398,2.3427,2.3443,2.3465,2.3481,2.3472,2.3521,2.3512,2.3531,2.353,2.354,2.3539,2.3582,2.3548,2.3548,2.3548,2.3548,0,2.3171,2.3198,2.3232,2.3253,2.3285,2.3305,2.3335,2.3353,2.3378,2.3402,2.3413,2.3436,2.3456,2.3481,2.3494,2.3527,2.3533,2.3542,2.3545,2.3542,2.3541,2.3552,2.355,2.3549,2.3549,2.3549,2.3549,0,2.3184,2.3207,2.3246,2.3283,2.3293,2.3315,2.3346,2.3367,2.3384,2.3416,2.3424,2.345,2.3481,2.35,2.3538,2.3547,2.3584,2.3585,2.3575,2.3577,2.3595,2.3593,2.3646,2.3655,2.3615,2.3615,2.3615,0,2.32,2.3222,2.3263,2.3282,2.33,2.3329,2.335,2.3371,2.3391,2.3426,2.3443,2.3476,2.3503,2.3551,2.3573,2.3603,2.3606,2.3623,2.361,2.3607,2.3608,2.3607,2.361,2.3625,2.3625,2.3625,2.3625,0,2.3226,2.3238,2.3267,2.3302,2.3327,2.3354,2.3382,2.3396,2.3422,2.3444,2.3478,2.3499,2.3541,2.3573,2.3606,2.3622,2.3628,2.363,2.3636,2.3632,2.3626,2.3632,2.3582,2.3628,2.3628,2.3628,2.3627,2.3627,2.3242,2.3263,2.3297,2.333,2.3354,2.3381,2.3404,2.3426,2.3455,2.3492,2.3502,2.3538,2.3567,2.3612,2.363,2.3658,2.3655,2.3664,2.3666,2.3668,2.3669,2.3622,2.3664,2.3664,2.3664,2.3664,2.3663,0,2.3269,2.3293,2.3324,2.3364,2.3391,2.3398,2.343,2.3451,2.3483,2.3511,2.3539,2.3579,2.3612,2.3637,2.3671,2.3688,2.3692,2.3696,2.3695,2.37,2.3669,2.3661,2.3693,2.3693,2.3693,2.3693,2.3693,2.3693,2.3287,2.3326,2.3342,2.3393,2.3415,2.3453,2.3471,2.3495,2.3519,2.3564,2.3592,2.361,2.3637,2.3673,2.3704,2.3711,2.3723,2.3727,2.3734,2.3704,2.3701,2.3698,2.3691,2.3729,2.3729,2.3763,2.3763,2.3763]}]]